Temperature
28 29 29 29 28 29 29 29 29 30 30 30 29 28 27 26 25 24 24 23 22 21 21 21 20 20 20 19 19 19 19 19 19 19 18 18 18 18 17 17 17 16 16 16
27 27 28 28 28 29 29 29 30 30 30 30 29 27 26 25 25 24 24 23 22 21 21 20 20 20 20 19 19 19 19 19 18 18 18 18 17 17 17 16 16 16 16 16
26 27 27 27 28 28 29 29 29 29 29 29 28 27 26 25 25 24 23 23 22 21 21 20 20 20 19 19 19 19 18 18 18 18 18 17 17 16 16 16 16 15 15 15
26 26 25 27 29 29 29 29 29 29 29 28 27 26 25 25 24 24 23 22 22 21 21 20 20 19 19 19 19 18 18 18 18 17 17 17 17 16 16 16 15 15 15 14
26 25 26 26 27 27 27 27 28 28 27 27 26 25 25 24 24 23 23 22 21 21 21 20 20 19 19 19 18 18 18 17 17 17 17 16 16 16 15 15 15 14 14 14
25 25 25 27 27 26 27 26 27 27 26 26 25 27 26 24 23 22 22 21 21 21 20 20 20 19 19 18 18 18 17 17 17 16 16 16 16 15 15 15 14 14 13 13
25 25 26 27 25 25 26 26 26 25 25 25 25 26 24 22 22 21 21 21 21 20 20 20 19 19 18 18 17 17 17 16 16 16 16 15 15 15 14 14 14 13 13 13
25 25 25 25 25 26 25 23 24 24 24 24 23 23 22 21 21 20 20 20 20 20 19 19 19 18 18 17 17 17 16 16 16 15 15 15 15 14 14 14 13 13 13 12
25 25 23 23 24 22 22 22 22 23 22 22 22 22 21 21 20 20 19 19 19 19 19 19 18 18 18 17 17 16 16 16 15 15 15 14 14 14 13 13 13 12 12 12
23 23 22 21 21 20 20 21 21 21 21 21 21 21 21 20 19 19 19 19 19 19 19 18 18 17 17 17 17 16 16 15 15 15 14 14 14 13 13 13 12 12 12 12
22 22 22 21 20 20 20 20 20 20 20 20 20 20 20 19 19 19 18 18 18 18 18 18 17 17 17 16 16 16 15 15 14 14 14 14 13 13 13 12 12 12 12 12
23 21 22 21 20 19 20 20 20 20 19 19 19 19 19 18 18 18 18 18 18 17 17 17 17 16 16 16 16 16 15 15 14 14 14 13 13 13 12 12 12 12 12 12
19 19 20 19 19 19 19 19 19 19 19 19 18 18 18 18 18 17 17 17 17 17 17 16 16 16 16 16 15 15 15 14 14 14 13 13 13 13 12 12 12 12 12 11
17 18 18 19 19 18 18 18 18 18 18 18 18 17 17 17 17 17 17 17 17 16 16 16 16 16 15 15 15 15 14 14 14 13 13 13 13 12 12 12 11 11 11 11
17 17 18 18 18 18 18 18 18 18 17 17 17 17 17 17 16 16 16 16 16 16 16 16 15 15 15 15 15 14 14 14 14 13 13 13 12 12 12 12 11 11 11 11
17 17 17 17 17 18 18 18 18 18 17 17 17 16 16 16 16 16 16 15 15 15 15 15 15 15 15 15 14 14 14 14 13 13 13 13 13 12 12 12 12 11 11 11
16 17 17 17 17 17 17 17 17 17 16 16 16 16 16 16 15 15 15 15 15 15 15 15 15 14 14 14 14 14 14 13 13 13 13 13 13 12 12 12 12 11 11 11
16 16 16 16 17 17 17 16 16 16 16 16 15 15 15 15 15 15 14 14 14 14 14 14 14 14 14 14 14 13 13 13 13 13 13 12 12 12 12 12 12 11 11 11
15 15 16 16 16 16 16 16 15 15 15 15 15 15 15 14 14 14 14 14 14 14 14 14 14 14 14 14 13 13 13 13 13 13 12 12 12 12 12 12 11 11 11 10
15 15 15 15 15 15 15 15 15 15 15 15 15 14 14 14 14 14 14 14 14 14 14 13 13 13 13 13 13 13 13 13 13 13 12 12 12 12 12 12 11 11 11 10
14 14 15 15 15 15 14 14 14 14 14 14 14 14 14 14 14 14 13 13 13 13 13 13 13 13 13 13 13 13 13 12 12 12 12 12 12 12 11 11 11 11 10 10
13 14 14 14 14 14 14 14 14 14 14 14 14 13 13 13 13 13 13 13 13 13 13 13 13 13 13 13 12 12 12 12 12 12 12 12 11 11 11 11 11 10 10 10
13 13 13 13 13 13 13 13 13 13 13 13 13 13 13 13 13 13 13 12 12 12 12 12 12 13 12 12 12 12 12 12 12 12 11 11 11 11 11 10 10 10 10 10
12 12 12 12 12 12 12 13 12 12 12 13 12 12 13 13 12 12 12 12 12 12 12 12 12 12 12 12 12 12 12 12 11 11 11 11 11 10 10 10 10 10 10 9
11 11 12 12 12 12 12 12 12 12 12 12 12 12 12 12 12 12 12 12 12 12 12 12 12 12 12 12 12 11 11 11 11 11 11 11 10 10 10 10 9 9 9 9
11 11 11 11 11 12 12 12 12 12 12 12 12 12 12 12 12 12 11 11 11 11 11 11 11 11 11 11 11 11 11 11 11 11 10 10 10 10 9 9 9 9 9 8
10 11 11 11 11 11 11 11 11 11 11 11 11 11 11 11 11 11 11 11 11 11 11 11 11 11 11 11 11 10 10 10 10 10 10 10 9 9 9 9 9 9 8 8
Wind_Speed
9 6 12 15 17 18 18 17 14 12 12 9 7 6 5 5 5 6 6 7 7 7 7 7 7 7 6 6 6 6 7 6 5 5 4 4 4 3 3 3 2 3 2 2
11 9 11 13 15 17 18 16 15 13 11 6 5 5 6 7 7 7 7 7 7 7 7 7 7 7 7 7 7 7 7 6 6 5 5 5 5 5 5 4 4 4 4 3
12 12 11 15 15 16 16 15 14 14 10 6 7 7 7 8 8 7 7 7 8 8 7 7 7 7 7 7 7 7 7 6 6 6 6 5 5 5 5 5 5 5 4 4
10 11 14 9 9 12 13 12 11 9 6 7 7 6 6 7 7 7 7 7 7 8 8 7 7 8 8 8 8 8 7 6 6 6 6 6 6 6 6 6 6 5 5 5
10 13 11 7 7 11 12 11 10 9 7 6 6 5 6 6 6 7 7 7 7 8 9 9 9 9 9 9 9 8 7 6 6 6 6 7 7 6 6 6 6 6 6 6
11 13 13 9 9 8 9 11 8 9 9 9 9 8 6 5 6 6 7 7 7 8 9 9 9 10 10 9 8 8 7 7 6 6 7 7 7 7 6 6 7 7 7 7
13 11 8 5 8 9 11 7 6 8 9 10 9 4 4 5 5 6 7 8 9 9 9 9 10 10 9 9 8 8 8 8 7 7 7 8 7 7 7 7 7 7 7 7
12 12 8 7 9 8 2 4 4 5 6 7 5 5 5 6 6 7 8 9 10 10 9 9 10 10 10 9 9 9 9 9 8 7 7 7 8 7 7 7 8 7 7 6
7 5 4 5 3 2 2 3 3 4 4 5 6 6 6 6 7 8 8 9 9 10 10 9 9 9 10 10 10 10 10 9 8 8 7 7 7 7 7 5 5 6 6 6
4 4 4 4 2 2 3 2 2 2 3 4 5 6 6 7 8 8 8 8 8 9 10 9 9 9 10 10 11 10 10 9 8 8 7 7 5 5 5 4 4 5 5 5
5 4 5 5 4 3 3 2 2 2 2 3 5 6 7 7 7 7 8 8 8 8 9 9 9 9 10 10 11 10 10 9 8 7 8 7 6 5 4 4 3 3 4 4
5 5 4 5 4 3 3 2 2 2 2 2 3 5 6 7 7 7 7 7 8 8 9 9 9 9 9 10 10 10 9 8 7 7 7 7 7 7 11 9 10 9 7 5
1 2 2 3 3 3 2 2 2 3 3 3 4 5 6 6 6 7 8 7 8 8 9 10 10 9 9 9 9 9 9 8 7 7 7 7 7 7 7 7 9 9 8 8
3 3 4 4 3 2 2 2 2 3 3 4 4 5 5 6 7 7 7 7 7 8 9 9 10 9 9 9 9 9 9 8 7 7 7 7 7 7 7 7 7 5 6 7
4 4 3 2 3 2 2 3 3 3 3 4 4 5 6 6 6 6 6 7 8 8 8 9 9 9 9 10 9 9 8 8 7 7 7 6 7 7 6 7 6 6 7 6
3 4 4 4 4 3 3 3 3 3 3 3 3 4 5 6 6 6 6 7 8 8 8 9 9 9 9 10 9 8 7 8 7 7 7 7 7 6 6 6 6 5 5 6
5 5 5 5 5 4 4 3 3 2 3 3 3 5 6 6 6 6 6 6 7 7 7 8 8 9 9 9 9 8 8 8 9 7 6 6 6 6 6 6 6 5 5 5
7 6 5 5 5 4 4 4 4 4 3 3 4 6 6 6 6 6 6 6 7 7 6 7 8 9 8 8 7 7 7 8 7 6 6 6 6 6 5 6 6 6 5 6
6 6 6 5 5 4 4 4 4 4 4 4 5 6 6 6 6 6 6 6 7 6 6 6 7 8 9 8 7 7 7 8 7 6 6 6 6 6 6 6 5 5 5 6
4 5 5 5 5 5 5 4 4 4 4 4 5 5 5 5 6 6 6 5 4 4 6 7 8 8 8 8 7 7 7 7 7 7 6 6 6 6 6 6 5 5 5 5
3 3 4 5 4 4 4 5 5 5 5 5 5 5 5 5 6 6 5 4 4 5 6 7 6 6 7 7 7 7 7 7 7 6 6 6 6 6 6 6 5 5 5 5
2 3 3 3 4 4 3 4 5 5 5 5 5 5 5 5 5 5 4 3 5 5 5 6 6 6 6 7 7 7 7 7 6 5 5 5 5 5 5 5 5 5 5 5
1 2 2 3 3 4 3 3 4 5 5 6 5 5 5 4 4 5 5 4 5 5 5 4 7 8 7 7 6 7 7 6 5 5 5 5 5 5 5 5 4 5 5 5
1 2 3 3 3 3 3 3 3 4 4 4 4 5 5 5 4 4 5 7 6 6 5 7 8 7 6 6 6 6 6 6 5 5 5 4 4 4 4 4 4 4 5 5
1 2 3 3 3 3 3 4 4 4 4 4 4 4 4 4 4 5 6 7 8 7 7 8 7 6 5 5 6 5 5 5 5 5 5 4 4 4 4 3 4 4 4 4
1 1 2 2 2 2 3 3 3 4 4 4 4 4 4 5 6 6 6 7 9 7 7 7 7 6 5 5 6 5 5 6 6 5 5 4 4 3 3 2 3 3 3 3
1 1 2 2 2 2 3 3 4 4 4 5 5 5 5 5 6 6 7 7 7 7 6 6 6 5 5 5 6 5 5 5 5 4 4 4 4 3 3 3 3 2 3 3
Wind_Direction
232 209 199 203 204 207 217 228 234 229 230 217 196 190 174 165 155 148 141 140 141 140 138 141 143 144 144 142 142 143 141 138 137 136 134 138 134 125 115 113 117 112 110 101
212 211 211 213 211 211 218 227 234 237 234 215 198 189 180 178 173 167 159 154 151 148 144 145 145 143 141 139 139 140 138 135 133 131 127 125 121 112 107 101 96 93 93 92
207 200 209 217 213 211 216 222 228 231 230 198 203 200 194 187 183 178 168 162 160 158 153 149 143 139 139 141 140 137 134 133 133 131 125 119 116 114 114 108 99 90 85 86
205 194 217 211 205 216 219 220 226 237 221 206 209 198 194 191 188 181 171 165 160 157 150 146 141 138 137 138 137 136 136 134 132 130 126 123 118 115 110 107 103 97 89 86
209 209 211 189 193 204 210 219 223 222 209 191 177 179 188 182 182 180 169 160 154 154 149 144 142 141 139 137 136 135 135 135 134 133 129 126 121 114 109 107 103 99 92 88
213 220 217 200 177 193 211 218 204 206 200 187 186 205 183 156 163 162 154 149 147 145 144 143 143 144 141 136 135 134 133 130 128 128 128 124 120 115 112 109 106 102 93 87
214 220 220 154 157 177 209 206 176 196 197 195 205 219 137 134 144 151 148 146 145 144 143 143 145 145 140 135 134 131 127 125 122 122 124 122 118 115 115 112 107 102 99 93
213 220 207 144 174 199 186 97 148 175 187 192 183 154 140 140 141 145 145 145 144 142 140 143 148 146 139 135 131 128 125 122 119 120 121 122 118 115 115 117 116 112 107 101
211 209 96 154 163 98 104 136 150 173 178 178 174 169 158 147 143 144 144 144 144 142 140 143 149 148 141 137 134 132 128 123 121 120 116 118 121 123 126 128 127 124 123 117
184 167 153 160 162 163 161 161 165 171 175 180 181 174 161 150 147 146 144 145 146 145 145 144 146 144 139 139 140 137 132 127 126 124 120 113 114 120 123 126 126 124 123 121
195 170 162 163 159 153 154 163 147 138 148 172 174 167 158 153 150 148 144 144 148 150 148 146 144 141 140 142 142 138 135 134 133 128 121 114 100 74 96 87 87 113 122 124
196 172 188 156 149 155 154 144 126 119 112 128 155 156 155 151 148 147 144 145 148 148 146 143 143 142 143 147 147 145 145 146 144 140 135 133 125 103 55 62 66 59 51 67
202 180 169 164 171 169 164 146 131 129 129 133 140 148 150 146 147 145 146 150 150 148 146 144 145 145 148 151 153 153 150 148 147 147 145 146 144 140 128 94 73 70 69 72
185 174 167 167 163 161 159 144 133 127 126 132 137 140 143 144 143 147 149 149 147 146 146 147 147 147 150 152 154 154 151 146 151 151 153 153 151 151 148 145 138 124 102 99
198 203 194 181 183 178 173 166 158 148 138 134 134 138 143 140 141 145 144 143 145 149 149 149 149 150 153 156 157 158 156 153 152 153 155 154 154 154 152 149 145 142 138 127
204 206 206 203 199 192 182 178 175 163 153 148 143 139 140 137 135 138 142 149 155 156 156 156 156 155 156 157 156 155 150 141 154 158 157 157 160 161 157 154 154 154 154 149
211 212 208 206 207 208 205 197 192 174 159 158 153 147 145 141 139 142 146 149 149 152 157 156 155 154 157 160 161 156 152 152 161 165 164 163 165 165 161 162 163 162 155 138
225 225 222 218 214 204 195 188 183 178 176 170 161 157 158 157 155 151 148 143 140 144 150 154 153 153 156 159 159 156 157 160 167 169 168 168 165 165 167 167 167 164 154 152
217 215 211 206 201 196 188 181 179 176 169 168 165 163 161 158 153 151 151 152 153 152 154 151 146 158 157 153 154 158 159 161 164 166 165 158 170 173 172 171 168 165 164 166
200 199 196 191 186 188 187 183 178 175 174 170 164 160 158 154 152 152 154 159 164 155 152 153 159 159 156 154 164 162 162 165 164 163 166 173 172 172 174 172 172 172 173 176
180 178 180 177 175 176 180 181 179 177 175 171 166 165 161 157 156 157 162 157 143 141 147 151 158 157 156 155 174 165 163 164 165 168 172 173 174 177 176 175 177 179 184 187
170 168 168 170 170 166 165 171 174 175 172 164 161 156 155 158 154 149 151 149 144 143 155 159 155 143 150 163 167 162 161 165 166 167 170 174 177 180 180 182 184 185 187 191
150 145 143 149 156 153 156 163 167 169 164 161 162 163 163 163 165 158 149 143 145 148 159 147 128 134 159 174 161 160 160 162 164 166 172 178 179 181 181 183 185 188 190 194
105 127 137 141 144 153 162 162 151 147 144 147 156 159 158 156 151 141 132 131 131 142 138 121 129 150 186 164 153 154 155 158 163 168 171 170 176 178 179 184 186 190 192 197
119 145 152 158 166 170 162 153 147 147 144 142 144 146 151 149 146 138 135 138 141 143 134 134 145 169 170 150 150 151 156 158 161 164 164 167 174 174 173 179 184 189 194 200
172 165 160 167 170 170 166 162 156 152 151 147 140 137 133 130 134 138 139 141 142 140 141 145 151 165 155 148 144 145 148 152 161 167 163 163 161 163 166 177 192 200 202 203
130 138 148 160 160 165 167 164 159 155 155 150 143 139 138 139 142 143 141 142 144 145 148 152 153 151 150 148 147 151 153 154 154 156 160 161 160 166 175 187 198 198 201 197
Height
1488 1487 1489 1494 1497 1500 1502 1500 1504 1502 1501 1500 1503 1508 1512 1515 1517 1518 1520 1521 1523 1525 1527 1529 1531 1533 1535 1537 1538 1540 1541 1542 1543 1543 1544 1545 1545 1546 1546 1547 1547 1548 1548 1548
1495 1491 1491 1494 1493 1495 1497 1496 1497 1497 1499 1497 1503 1507 1511 1514 1516 1517 1519 1521 1523 1524 1526 1528 1530 1532 1534 1535 1537 1539 1540 1541 1541 1542 1542 1543 1543 1544 1545 1546 1546 1546 1546 1547
1495 1492 1495 1500 1492 1492 1493 1492 1494 1498 1497 1499 1503 1506 1509 1512 1514 1516 1518 1520 1521 1523 1525 1527 1529 1531 1532 1534 1536 1537 1538 1539 1540 1541 1541 1542 1542 1543 1544 1544 1545 1545 1546 1546
1491 1499 1510 1490 1484 1486 1489 1490 1491 1492 1495 1499 1502 1505 1508 1511 1513 1515 1517 1519 1521 1523 1524 1527 1529 1530 1532 1533 1534 1536 1537 1538 1538 1539 1540 1541 1541 1542 1543 1544 1544 1545 1545 1545
1491 1497 1495 1490 1487 1488 1491 1492 1491 1494 1496 1500 1503 1505 1507 1509 1511 1513 1515 1517 1519 1521 1523 1525 1527 1529 1531 1532 1533 1535 1536 1536 1537 1539 1539 1540 1541 1542 1542 1543 1544 1545 1545 1546
1491 1496 1499 1487 1484 1488 1491 1494 1491 1493 1496 1499 1501 1500 1503 1507 1510 1512 1514 1515 1517 1520 1522 1524 1526 1528 1530 1531 1533 1534 1535 1536 1537 1538 1539 1540 1541 1542 1543 1544 1545 1546 1546 1547
1488 1491 1484 1480 1485 1489 1497 1491 1490 1493 1495 1497 1498 1498 1503 1506 1508 1510 1512 1514 1516 1518 1521 1523 1525 1527 1529 1531 1532 1533 1534 1535 1537 1538 1539 1540 1541 1542 1543 1545 1546 1546 1547 1548
1484 1489 1488 1483 1485 1486 1487 1489 1491 1493 1495 1497 1499 1500 1503 1505 1506 1508 1510 1512 1515 1517 1520 1522 1524 1527 1528 1530 1531 1533 1534 1535 1537 1538 1540 1541 1542 1543 1544 1545 1546 1547 1548 1549
1478 1482 1483 1484 1485 1488 1489 1491 1492 1493 1495 1497 1498 1500 1502 1504 1505 1508 1510 1511 1514 1516 1518 1521 1523 1525 1527 1529 1531 1532 1534 1536 1537 1539 1540 1542 1543 1544 1545 1546 1548 1549 1549 1550
1480 1481 1484 1486 1488 1489 1490 1491 1492 1493 1494 1496 1497 1498 1500 1502 1504 1506 1509 1510 1513 1515 1517 1520 1522 1525 1526 1528 1530 1532 1534 1536 1537 1539 1540 1542 1543 1545 1546 1547 1548 1549 1550 1551
1480 1482 1484 1486 1488 1489 1490 1491 1492 1493 1493 1494 1496 1498 1499 1501 1503 1505 1507 1509 1511 1514 1516 1519 1521 1523 1525 1527 1530 1532 1534 1536 1538 1539 1541 1542 1543 1545 1546 1547 1549 1550 1551 1551
1476 1482 1482 1486 1488 1490 1490 1491 1492 1492 1493 1494 1495 1497 1499 1500 1502 1504 1506 1508 1510 1513 1516 1518 1520 1522 1524 1526 1529 1531 1533 1535 1537 1539 1541 1542 1543 1545 1546 1547 1548 1550 1550 1551
1482 1483 1485 1487 1488 1489 1490 1491 1492 1493 1493 1494 1496 1497 1498 1500 1501 1503 1505 1507 1510 1512 1515 1517 1519 1521 1524 1526 1528 1530 1532 1534 1537 1539 1540 1542 1544 1545 1546 1548 1549 1550 1551 1552
1483 1484 1485 1487 1488 1489 1490 1491 1492 1493 1493 1494 1496 1497 1497 1499 1501 1503 1505 1507 1509 1512 1514 1517 1519 1521 1523 1525 1527 1529 1532 1534 1536 1538 1540 1542 1544 1546 1547 1548 1549 1550 1551 1552
1483 1484 1485 1487 1488 1489 1490 1491 1492 1493 1493 1495 1496 1497 1498 1499 1501 1503 1505 1506 1509 1511 1514 1516 1518 1520 1522 1524 1527 1529 1531 1534 1536 1538 1540 1542 1544 1546 1547 1549 1550 1551 1551 1552
1482 1483 1484 1486 1487 1488 1490 1491 1492 1493 1494 1495 1496 1497 1498 1499 1500 1502 1505 1506 1509 1511 1513 1515 1517 1519 1521 1524 1526 1528 1530 1532 1535 1537 1540 1541 1543 1545 1547 1548 1549 1550 1551 1552
1480 1482 1483 1484 1486 1488 1489 1490 1492 1493 1494 1495 1496 1497 1498 1499 1501 1503 1505 1507 1509 1511 1513 1515 1516 1518 1520 1522 1525 1527 1529 1532 1534 1537 1539 1541 1542 1544 1545 1547 1548 1549 1551 1551
1479 1481 1482 1483 1484 1486 1488 1489 1491 1492 1493 1494 1495 1497 1498 1499 1501 1503 1505 1506 1508 1510 1512 1514 1516 1517 1519 1521 1524 1526 1529 1531 1533 1536 1538 1539 1541 1543 1544 1546 1547 1548 1549 1549
1477 1479 1480 1481 1483 1485 1486 1488 1489 1491 1492 1494 1495 1496 1498 1499 1501 1502 1504 1506 1507 1509 1511 1513 1514 1516 1518 1520 1523 1525 1528 1530 1532 1534 1536 1538 1539 1541 1543 1544 1545 1546 1547 1548
1476 1477 1478 1479 1481 1483 1485 1486 1488 1489 1491 1492 1494 1495 1497 1498 1499 1501 1502 1504 1506 1508 1510 1512 1513 1515 1517 1519 1522 1524 1527 1529 1531 1533 1535 1537 1538 1539 1541 1542 1543 1544 1545 1546
1474 1475 1476 1478 1480 1482 1484 1485 1487 1488 1490 1491 1493 1494 1496 1498 1499 1500 1502 1503 1505 1507 1508 1510 1512 1514 1516 1518 1521 1523 1525 1528 1530 1532 1533 1535 1536 1538 1539 1540 1541 1542 1543 1544
1473 1474 1475 1477 1478 1480 1482 1484 1485 1487 1489 1490 1492 1494 1495 1497 1498 1499 1501 1502 1504 1505 1508 1510 1511 1513 1515 1518 1520 1522 1524 1526 1528 1530 1532 1533 1535 1536 1537 1538 1539 1540 1541 1542
1473 1473 1474 1476 1477 1478 1480 1482 1484 1486 1487 1489 1490 1492 1494 1495 1497 1498 1500 1502 1503 1505 1507 1509 1510 1513 1515 1517 1519 1521 1523 1525 1527 1528 1530 1531 1533 1534 1535 1535 1536 1537 1538 1539
1471 1472 1474 1475 1476 1478 1479 1481 1482 1484 1486 1487 1489 1491 1492 1494 1495 1497 1499 1500 1502 1504 1506 1508 1510 1512 1514 1517 1519 1520 1522 1524 1525 1527 1528 1529 1531 1532 1532 1533 1534 1534 1535 1536
1471 1472 1473 1474 1476 1477 1478 1480 1481 1483 1485 1486 1488 1489 1491 1493 1495 1496 1498 1500 1502 1504 1506 1508 1510 1512 1514 1516 1518 1519 1521 1522 1524 1525 1526 1528 1529 1530 1530 1531 1531 1532 1532 1533
1470 1472 1473 1474 1475 1476 1478 1479 1480 1482 1484 1485 1487 1488 1490 1492 1494 1496 1498 1500 1502 1504 1507 1508 1510 1512 1514 1516 1517 1518 1520 1521 1523 1524 1525 1526 1527 1528 1528 1529 1529 1530 1530 1530
1470 1471 1472 1473 1475 1476 1477 1478 1479 1481 1483 1484 1485 1488 1490 1492 1494 1496 1498 1500 1502 1504 1506 1508 1510 1512 1514 1515 1517 1518 1520 1521 1522 1523 1524 1525 1526 1526 1527 1527 1528 1528 1528 1528